This is the latest recevied weather packets stored in our database for station/object OE9FWV. If no packets are shown the sender has not sent any weather packets the latest 10 day(s).
| Time | Temp. | Humidity | Pressure | Rain* | Wind** | Luminosity | Snow |
|---|---|---|---|---|---|---|---|
| 1777676443 | 15° C | 58% | 1023 hPa | 0 mm | - | - | - |
| 1777675836 | 15.56° C | 56% | 1023 hPa | 0 mm | - | - | - |
| 1777675230 | 16.11° C | 54% | 1023 hPa | 0 mm | - | - | - |
| 1777674631 | 16.67° C | 52% | 1023.1 hPa | 0 mm | - | - | - |
| 1777674031 | 16.67° C | 52% | 1023.1 hPa | 0 mm | - | - | - |
| 1777673424 | 16.11° C | 53% | 1023.2 hPa | 0 mm | - | - | - |
| 1777672820 | 16.11° C | 54% | 1023.1 hPa | 0 mm | - | - | - |
| 1777671004 | 16.67° C | 53% | 1023 hPa | 0 mm | - | - | - |
| 1777670399 | 16.67° C | 53% | 1023 hPa | 0 mm | - | - | - |
| 1777669793 | 17.22° C | 53% | 1022.8 hPa | 0 mm | - | - | - |
| 1777669192 | 17.22° C | 52% | 1022.7 hPa | 0 mm | - | - | - |
| 1777668589 | 17.22° C | 52% | 1022.7 hPa | 0 mm | - | - | - |
| 1777667984 | 17.22° C | 52% | 1022.6 hPa | 0 mm | - | - | - |
| 1777667384 | 16.67° C | 53% | 1022.6 hPa | 0 mm | - | - | - |
| 1777664968 | 16.11° C | 53% | 1022.4 hPa | 0 mm | - | - | - |
| 1777664363 | 16.67° C | 54% | 1022.4 hPa | 0 mm | - | - | - |
| 1777663762 | 17.22° C | 54% | 1022.3 hPa | 0 mm | - | - | - |
| 1777663161 | 17.22° C | 52% | 1022.2 hPa | 0 mm | - | - | - |
| 1777662555 | 17.78° C | 51% | 1022.3 hPa | 0 mm | - | - | - |
| 1777661950 | 18.33° C | 50% | 1022.2 hPa | 0 mm | - | - | - |
| 1777661348 | 18.89° C | 48% | 1022.1 hPa | 0 mm | - | - | - |
| 1777660747 | 18.89° C | 47% | 1021.9 hPa | 0 mm | - | - | - |
| 1777660146 | 20° C | 45% | 1022 hPa | 0 mm | - | - | - |
| 1777659542 | 20° C | 43% | 1021.9 hPa | 0 mm | - | - | - |
| 1777658935 | 20.56° C | 41% | 1021.8 hPa | 0 mm | - | - | - |
* Rain latest hour (hover to see other rain measurements)
** Current wind speed in m/s (hover to see current wind gust speed)